Siloam Springs, AR

1:14 PM CDT on July 26, 2017 (GMT -0500)
Smith

Weather History for KSLG - October, 2012

Change the Weather History Date:

Friday, October 19, 2012

  Actual Average Record
Temperature  
Mean Temperature 54 °F -  
Max Temperature 60 °F 66 °F 89 °F (2005)
Min Temperature 48 °F 46 °F 33 °F (1996)
Degree Days  
Heating Degree Days 12    
Growing Degree Days 4 (Base 50)    
Moisture  
Dew Point 29 °F    
Average Humidity 39    
Maximum Humidity 47    
Minimum Humidity 29    
Precipitation  
Precipitation 0.00 in - - ()
Sea Level Pressure  
Sea Level Pressure 29.85 in    
Wind  
Wind Speed 11 mph (West)    
Max Wind Speed 21 mph    
Max Gust Speed 28 mph    
Visibility 9 miles    
Events      
Averages and records for this station are not official NWS values.
T = Trace of Precipitation, MM = Missing Value Source: NWS Daily Summary

Daily Weather History Graph

Daily Weather History Graph

Search for Another Location

Airport or City:

Trip Planner

Search our weather history database for the weather conditions in past years. The results will help you decide how hot, cold, wet, or windy it might be!

Date:

Astronomy

Oct. 19, 2012 Rise Set
Actual Time 7:28 AM CDT 6:36 PM CDT
Civil Twilight 7:02 AM CDT 7:02 PM CDT
Nautical Twilight 6:32 AM CDT 7:32 PM CDT
Astronomical Twilight 6:03 AM CDT 8:01 PM CDT
Moon 12:06 PM CDT (10/19) 10:21 PM CDT (10/19)
Length of Visible Light 11h 59m
Length of Day
11h 07m
Waxing Crescent, 24% of the Moon is Illuminated
Oct 19
Waxing Crescent
Oct 21
First Quarter
Oct 29
Full
Nov 6
Last Quarter
Nov 13
New

Hourly Weather History & Observations

Time (CDT) Temp. Dew Point Humidity Pressure Visibility Wind Dir Wind Speed Gust Speed Precip Events Conditions
12:15 AM 57.2 °F 24.8 °F 29% 29.81 in 4.0 mi West 12.7 mph 19.6 mph N/A   Overcast
12:35 AM 57.2 °F 24.8 °F 29% 29.81 in 4.0 mi West 12.7 mph - N/A   Overcast
12:56 AM 55.4 °F 24.8 °F 31% 29.80 in 4.0 mi West 11.5 mph - N/A   Overcast
1:15 AM 55.4 °F 24.8 °F 31% 29.80 in 4.0 mi West 11.5 mph - N/A   Overcast
1:35 AM 55.4 °F 24.8 °F 31% 29.81 in 5.0 mi West 12.7 mph 17.3 mph N/A   Overcast
2:35 AM 53.6 °F 26.6 °F 35% 29.81 in 5.0 mi West 8.1 mph - N/A   Overcast
2:55 AM 51.8 °F 26.6 °F 38% 29.81 in 5.0 mi West 8.1 mph - N/A   Overcast
3:16 AM 51.8 °F 26.6 °F 38% 29.81 in 5.0 mi West 9.2 mph - N/A   Overcast
3:35 AM 51.8 °F 26.6 °F 38% 29.81 in 5.0 mi West 11.5 mph - N/A   Scattered Clouds
3:55 AM 51.8 °F 26.6 °F 38% 29.81 in 7.0 mi West 10.4 mph - N/A   Clear
4:15 AM 51.8 °F 26.6 °F 38% 29.80 in 8.0 mi West 9.2 mph - N/A   Clear
4:35 AM 50.0 °F 28.4 °F 43% 29.80 in 9.0 mi West 9.2 mph - N/A   Clear
4:55 AM 50.0 °F 28.4 °F 43% 29.80 in 10.0 mi West 9.2 mph - N/A   Clear
5:15 AM 51.8 °F 28.4 °F 41% 29.80 in 10.0 mi West 9.2 mph - N/A   Clear
5:55 AM 51.8 °F 28.4 °F 41% 29.82 in 10.0 mi West 11.5 mph 21.9 mph N/A   Clear
6:15 AM 51.8 °F 28.4 °F 41% 29.81 in 10.0 mi West 13.8 mph 25.3 mph N/A   Clear
6:35 AM 51.8 °F 28.4 °F 41% 29.82 in 10.0 mi WNW 13.8 mph 26.5 mph N/A   Clear
6:56 AM 48.2 °F 28.4 °F 46% 29.82 in 10.0 mi West 9.2 mph - N/A   Clear
7:15 AM 48.2 °F 28.4 °F 46% 29.82 in 10.0 mi West 8.1 mph - N/A   Clear
8:15 AM 50.0 °F 28.4 °F 43% 29.84 in 10.0 mi West 9.2 mph - N/A   Clear
8:35 AM 50.0 °F 30.2 °F 47% 29.84 in 10.0 mi WNW 12.7 mph 19.6 mph N/A   Partly Cloudy
9:35 AM 53.6 °F 30.2 °F 41% 29.86 in 10.0 mi WNW 20.7 mph 25.3 mph N/A   Clear
10:35 AM 55.4 °F 32.0 °F 41% 29.88 in 10.0 mi NW 19.6 mph 27.6 mph N/A   Clear
11:15 AM 55.4 °F 33.8 °F 44% 29.88 in 10.0 mi WNW 20.7 mph 26.5 mph N/A   Clear
11:35 AM 57.2 °F 33.8 °F 41% 29.89 in 10.0 mi WNW 18.4 mph 23.0 mph N/A   Clear
11:55 AM 57.2 °F 33.8 °F 41% 29.88 in 10.0 mi NW 19.6 mph 26.5 mph N/A   Clear
12:15 PM 59.0 °F 35.6 °F 42% 29.89 in 10.0 mi WNW 17.3 mph 23.0 mph N/A   Clear
12:36 PM 57.2 °F 33.8 °F 41% 29.89 in 10.0 mi WNW 17.3 mph 23.0 mph N/A   Clear
12:55 PM 57.2 °F 33.8 °F 41% 29.89 in 10.0 mi West 15.0 mph 21.9 mph N/A   Clear
1:15 PM 59.0 °F 33.8 °F 39% 29.88 in 10.0 mi West 17.3 mph 21.9 mph N/A   Clear
1:55 PM 60.8 °F 35.6 °F 39% 29.88 in 10.0 mi West 18.4 mph 24.2 mph N/A   Clear
2:55 PM - - N/A% 29.86 in 10.0 mi WNW 16.1 mph 20.7 mph N/A   Clear
3:16 PM - - N/A% 29.86 in 10.0 mi WNW 15.0 mph 23.0 mph N/A   Clear
3:55 PM - - N/A% 29.85 in 10.0 mi WNW 15.0 mph 25.3 mph N/A   Clear
4:16 PM - - N/A% 29.85 in 10.0 mi WNW 13.8 mph 17.3 mph N/A   Clear
4:35 PM - - N/A% 29.85 in 10.0 mi WNW 12.7 mph - N/A   Clear
4:55 PM - - N/A% 29.85 in 10.0 mi NW 15.0 mph - N/A   Clear
5:16 PM - - N/A% 29.85 in 10.0 mi WNW 13.8 mph - N/A   Clear
5:35 PM - - N/A% 29.85 in 10.0 mi WNW 11.5 mph - N/A   Clear
6:15 PM - - N/A% 29.86 in 10.0 mi WNW 8.1 mph - N/A   Clear
6:35 PM - - N/A% 29.86 in 10.0 mi WNW 5.8 mph - N/A   Clear
6:55 PM - - N/A% 29.86 in 10.0 mi NW 3.5 mph - N/A   Clear
7:35 PM - - N/A% 29.87 in 10.0 mi Calm Calm - N/A   Clear
7:55 PM - - N/A% 29.87 in 10.0 mi Calm Calm - N/A   Clear
8:15 PM - - N/A% 29.87 in 10.0 mi Calm Calm - N/A   Clear
8:36 PM - - N/A% 29.88 in 10.0 mi Calm Calm - N/A   Clear
8:55 PM - - N/A% 29.88 in 10.0 mi Calm Calm - N/A   Clear
9:15 PM - - N/A% 29.89 in 10.0 mi Calm Calm - N/A   Clear
9:55 PM - - N/A% 29.89 in 10.0 mi Calm Calm - N/A   Clear
10:15 PM - - N/A% 29.89 in 10.0 mi SE 4.6 mph - N/A   Clear
10:35 PM - - N/A% 29.89 in 10.0 mi SE 3.5 mph - N/A   Clear
10:55 PM - - N/A% 29.89 in 10.0 mi SE 3.5 mph - N/A   Clear
11:15 PM - - N/A% 29.89 in 10.0 mi ESE 3.5 mph - N/A   Clear
11:35 PM - - N/A% 29.89 in 10.0 mi Calm Calm - N/A   Clear